Estherville, IA

7:41 AM CDT on September 25, 2017 (GMT -0500)
Estherville Municipal

Weather History for KEST - May, 2014

Change the Weather History Date:

Thursday, May 8, 2014

  Actual Average Record
Temperature  
Mean Temperature 64 °F 56 °F  
Max Temperature 78 °F 68 °F 88 °F (1970)
Min Temperature 50 °F 43 °F 30 °F (1954)
Degree Days  
Heating Degree Days 1 10  
Month to date heating degree days 95 87  
Since 1 July heating degree days 8378 7548  
Cooling Degree Days 0 1  
Month to date cooling degree days 4 2  
Year to date cooling degree days 4 4  
Growing Degree Days 14 (Base 50)    
Moisture  
Dew Point 59 °F    
Average Humidity 78    
Maximum Humidity 100    
Minimum Humidity 56    
Precipitation  
Precipitation 0.34 in 0.13 in 3.25 in (1965)
Month to date precipitation 0.59 0.95  
Sea Level Pressure  
Sea Level Pressure 29.60 in    
Wind  
Wind Speed 16 mph (SSW)    
Max Wind Speed 39 mph    
Max Gust Speed 50 mph    
Visibility 6 miles    
Events Rain , Thunderstorm    
T = Trace of Precipitation, MM = Missing Value Source: NWS Daily Summary

Daily Weather History Graph

Daily Weather History Graph

Search for Another Location

Airport or City:

Trip Planner

Search our weather history database for the weather conditions in past years. The results will help you decide how hot, cold, wet, or windy it might be!

Date:

Astronomy

May. 08, 2014 Rise Set
Actual Time 6:02 AM CDT 8:29 PM CDT
Civil Twilight 5:30 AM CDT 9:01 PM CDT
Nautical Twilight 4:50 AM CDT 9:41 PM CDT
Astronomical Twilight 4:05 AM CDT 10:26 PM CDT
Moon 2:20 PM CDT (5/8) 2:45 AM CDT (5/8)
Length of Visible Light 15h 30m
Length of Day
14h 26m
Waxing Gibbous, 65% of the Moon is Illuminated
May 8
Waxing Gibbous
May 14
Full
May 21
Last Quarter
May 28
New
Jun 5
First Quarter

Hourly Weather History & Observations

Time (CDT) Temp. Dew Point Humidity Pressure Visibility Wind Dir Wind Speed Gust Speed Precip Events Conditions
12:52 AM 59.0 °F 57.0 °F 93% 29.58 in 7.0 mi NW 19.6 mph - N/A   Clear
2:52 AM 55.0 °F 54.0 °F 96% 29.59 in 8.0 mi ESE 10.4 mph - N/A   Clear
3:52 AM 57.9 °F 53.1 °F 84% 29.60 in 9.0 mi North 11.5 mph - 0.00 in Rain Light Rain
4:52 AM 53.1 °F 52.0 °F 96% 29.64 in 7.0 mi NNW 15.0 mph - 0.00 in   Mostly Cloudy
5:38 AM 53.1 °F 51.1 °F 93% 29.72 in 7.0 mi NW 12.7 mph - N/A Thunderstorm Mostly Cloudy
5:52 AM 53.1 °F 51.1 °F 93% 29.71 in 7.0 mi NW 9.2 mph - N/A   Mostly Cloudy
6:52 AM 52.0 °F 51.1 °F 97% 29.66 in 5.0 mi NNE 11.5 mph - 0.01 in   Overcast
7:52 AM 54.0 °F 53.1 °F 97% 29.65 in 4.0 mi ENE 10.4 mph - 0.01 in   Clear
8:52 AM 59.0 °F 55.9 °F 90% 29.66 in 5.0 mi East 3.5 mph - N/A   Mostly Cloudy
9:42 AM 57.0 °F 55.0 °F 93% 29.69 in 4.0 mi East 8.1 mph - N/A Thunderstorm Overcast
9:52 AM 57.0 °F 55.0 °F 93% 29.70 in 3.0 mi Calm Calm - 0.01 in Rain , Thunderstorm Light Thunderstorms and Rain
9:57 AM 57.9 °F 55.0 °F 90% 29.69 in 2.5 mi NNE 6.9 mph - 0.01 in Rain , Thunderstorm Thunderstorms and Rain
10:02 AM 57.9 °F 55.9 °F 93% 29.70 in 3.0 mi East 8.1 mph - 0.01 in Rain , Thunderstorm Light Thunderstorms and Rain
10:12 AM 59.0 °F 57.0 °F 93% 29.69 in 4.0 mi East 5.8 mph - 0.01 in Thunderstorm Overcast
10:19 AM 57.9 °F 55.9 °F 93% 29.70 in 4.0 mi East 4.6 mph - 0.01 in   Overcast
10:52 AM 59.0 °F 57.0 °F 93% 29.68 in 4.0 mi NE 6.9 mph - 0.01 in   Scattered Clouds
11:52 AM 63.0 °F 60.1 °F 90% 29.64 in 4.0 mi ENE 10.4 mph - N/A   Partly Cloudy
12:38 PM 71.1 °F 63.0 °F 75% 29.60 in 6.0 mi ESE 9.2 mph - N/A   Haze
12:59 PM 72.0 °F 64.9 °F 78% 29.58 in 7.0 mi South 17.3 mph - N/A Thunderstorm Overcast
1:24 PM 71.1 °F 64.9 °F 81% 29.58 in 7.0 mi South 21.9 mph 27.6 mph 0.00 in Rain , Thunderstorm Light Thunderstorms and Rain
1:30 PM 68.0 °F 66.0 °F 93% 29.60 in 1.0 mi SW 23.0 mph 35.7 mph 0.17 in Rain , Thunderstorm Heavy Thunderstorms and Rain
1:37 PM 66.0 °F 64.9 °F 96% 29.58 in 0.8 mi SSW 23.0 mph 35.7 mph 0.20 in Rain , Thunderstorm Light Thunderstorms and Rain
1:39 PM 66.9 °F 64.9 °F 93% 29.58 in 1.5 mi SSW 20.7 mph 29.9 mph 0.20 in Rain , Thunderstorm Light Thunderstorms and Rain
1:41 PM 66.9 °F 64.9 °F 93% 29.59 in 4.0 mi SSW 18.4 mph 29.9 mph 0.20 in Rain , Thunderstorm Light Thunderstorms and Rain
1:52 PM 69.1 °F 66.9 °F 93% 29.56 in 10.0 mi SSW 16.1 mph - 0.20 in Thunderstorm Mostly Cloudy
2:07 PM 71.1 °F 68.0 °F 90% 29.57 in 9.0 mi SSW 20.7 mph 27.6 mph N/A   Scattered Clouds
2:32 PM 73.9 °F 68.0 °F 82% 29.56 in 9.0 mi SSW 19.6 mph 28.8 mph N/A   Mostly Cloudy
2:52 PM 73.9 °F 66.0 °F 76% 29.52 in 10.0 mi South 20.7 mph 27.6 mph N/A   Scattered Clouds
4:52 PM 77.0 °F 61.0 °F 58% 29.51 in 10.0 mi South 21.9 mph 35.7 mph N/A   Clear
5:52 PM 73.9 °F 61.0 °F 64% 29.51 in 10.0 mi South 23.0 mph - N/A   Partly Cloudy
6:52 PM 73.9 °F 61.0 °F 64% 29.50 in 10.0 mi South 23.0 mph 35.7 mph N/A   Clear
7:18 PM 73.9 °F 61.0 °F 64% 29.51 in 9.0 mi South 24.2 mph 33.4 mph 0.00 in Rain , Thunderstorm Light Rain
7:24 PM 70.0 °F 62.1 °F 76% 29.52 in 2.0 mi South 39.1 mph 50.6 mph 0.07 in Rain , Thunderstorm Thunderstorms and Rain
7:31 PM 68.0 °F 57.9 °F 70% 29.51 in 1.5 mi South 16.1 mph 50.6 mph 0.09 in Rain , Thunderstorm Light Thunderstorms and Rain
7:35 PM 69.1 °F 57.9 °F 68% 29.52 in 5.0 mi SSW 16.1 mph 33.4 mph 0.09 in Rain , Thunderstorm Light Thunderstorms and Rain
7:42 PM 70.0 °F 61.0 °F 73% 29.52 in 10.0 mi WSW 23.0 mph 29.9 mph 0.10 in   Mostly Cloudy
7:46 PM 69.8 °F 60.8 °F 73% 29.52 in 8.0 mi West 26.5 mph 33.4 mph 0.10 in Thunderstorm Mostly Cloudy
7:52 PM 69.1 °F 60.1 °F 73% 29.52 in 7.0 mi WSW 24.2 mph 33.4 mph 0.10 in Thunderstorm Scattered Clouds
7:59 PM 68.0 °F 59.0 °F 73% 29.53 in 7.0 mi WSW 26.5 mph 33.4 mph N/A Thunderstorm Partly Cloudy
8:22 PM 64.9 °F 59.0 °F 81% 29.56 in 6.0 mi WSW 20.7 mph 31.1 mph N/A   Haze
8:52 PM 62.1 °F 57.0 °F 84% 29.56 in 8.0 mi WSW 23.0 mph - N/A   Clear
9:52 PM 55.9 °F 54.0 °F 93% 29.60 in 10.0 mi SW 23.0 mph 32.2 mph N/A   Mostly Cloudy
10:52 PM 54.0 °F 52.0 °F 93% 29.61 in 10.0 mi WSW 26.5 mph 31.1 mph N/A   Overcast
11:52 PM 51.1 °F 50.0 °F 96% 29.62 in 10.0 mi WSW 19.6 mph 31.1 mph N/A   Overcast